OpenBCM V1.08-5-g2f4a (Linux)

Packet Radio Mailbox

IZ3LSV

[San Dona' di P. JN]

 Login: GUEST





  
I0OJJ  > KEPS     15.04.25 02:25l 349 Lines 16626 Bytes #26 (0) @ AMSAT
BID : ORB25105.1
Read: GUEST
Subj: 2Line Orbital Elements 25105.AMSAT
Path: IZ3LSV<I0OJJ
Sent: 250415/0025z @:I0OJJ.ITA.EU [Rome] obcm1.08-6-g5b69
From: I0OJJ @ I0OJJ.ITA.EU (Gustavo)
To:   KEPS @ AMSAT
X-Info: This message was generated automatically


QST de W1STR

AMSAT Orbital Elements for Amateur Satellites in TLE Format
From Orbital Analysis Office
New England Sci-Tech STEM Education Center
Natick, MA April 15, 2025
To all radio amateurs


These element sets describe the orbits of various satellites 
in use by the amateur radio community. For details see:
www.amsat.org/keplerian-elements-formats/

A daily update of element sets is available at:
www.amsat.org/tle/daily-bulletin.txt
or without bulletin text:
www.amsat.org/tle/dailytle.txt


AO-07
1 07530U 74089B   25104.48822050 -.00000038  00000-0  50863-4 0  9992
2 07530 101.9951 108.1522 0011933 228.0089 285.5251 12.53688343307032
UO-11
1 14781U 84021B   25104.76835272  .00003295  00000-0  35441-3 0  9997
2 14781  97.7497  72.2670 0008492 150.1514 210.0189 14.89155853214333
AO-27
1 22825U 93061C   25103.71325363  .00000286  00000-0  12626-3 0  9995
2 22825  98.7419 164.9715 0007254 280.6631  79.3735 14.30773787645585
FO-29
1 24278U 96046B   25104.70983473  .00000038  00000-0  71773-4 0  9991
2 24278  98.5816   5.9439 0350723 127.2454 236.1226 13.53243812415461
NOAA-15
1 25338U 98030A   25104.71635979  .00000397  00000-0  18096-3 0  9996
2 25338  98.5407 131.1790 0010817 157.1074 203.0591 14.26941596400438
GO-32
1 25397U 98043D   25104.70339629  .00000242  00000-0  12472-3 0  9998
2 25397  98.9670  82.6690 0001866  45.0185 315.1144 14.24295064390550
ISS
1 25544U 98067A   25104.87321955  .00013573  00000-0  24923-3 0  9994
2 25544  51.6362 260.6254 0005230  40.7594 319.3785 15.49547970505343
NO-44
1 26931U 01043C   25104.69037983  .00000513  00000-0  22319-3 0  9995
2 26931  67.0497 272.3388 0005579 270.4126  89.6336 14.31695807229267
SO-50
1 27607U 02058C   25104.18948734  .00003425  00000-0  44565-3 0  9994
2 27607  64.5566  14.5753 0049628 347.4885  12.4984 14.81415019201082
CO-55
1 27844U 03031E   25104.74813846  .00000804  00000-0  36950-3 0  9993
2 27844  98.6785 113.7385 0009476 357.4407   2.6722 14.23937494130722
CO-57
1 27848U 03031J   25104.45970807  .00000670  00000-0  31525-3 0  9990
2 27848  98.6812 113.5015 0009759  15.3481 344.7991 14.23279937130438
RS-22
1 27939U 03042A   25104.74916387  .00002775  00000-0  44839-3 0  9998
2 27939  98.3230 272.8716 0011598 181.2470 304.6016 14.72153798152619
NOAA-18
1 28654U 05018A   25104.70496376  .00000413  00000-0  24260-3 0  9998
2 28654  98.8429 184.8080 0013062 288.8022  71.1733 14.13574871 25851
CO-58
1 28895U 05043F   25104.12460708  .00004095  00000-0  67856-3 0  9997
2 28895  98.2405 247.8055 0015768 124.6573 235.6122 14.70736435 38875
CO-65
1 32785U 08021C   25104.85643821  .00011146  00000-0  81678-3 0  9991
2 32785  97.7822  75.6500 0011405  48.4131 311.8070 15.03657060920775
AAUSAT2
1 32788U 08021F   25104.40986773  .00316150  00000-0  25424-2 0  9990
2 32788  97.6021  99.9885 0008755 132.3808 227.8196 15.69962175924633
CO-66
1 32791U 08021J   25103.68245439  .00024345  00000-0  12358-2 0  9994
2 32791  97.7253  82.5359 0005082  39.4806 320.6796 15.16894343921946
RS-30
1 32953U 08025A   25104.71040892  .00000031  00000-0  15439-3 0  9999
2 32953  82.4990 261.9249 0019911 165.4106 194.7553 12.43162342766598
NOAA-19
1 33591U 09005A   25104.70231222  .00000384  00000-0  22838-3 0  9997
2 33591  99.0014 169.0834 0014329 158.0745 202.1043 14.13339960834215
SRMSAT
1 37841U 11058D   25104.25348032  .00000619  00000-0  19253-3 0  9996
2 37841  19.9706 135.3969 0011786 164.3664 270.7154 14.11410559697364
ZACUBE-1
1 39417U 13066B   25104.34791374  .00008792  00000-0  77486-3 0  9991
2 39417  97.7753  61.7036 0042983 238.5708 121.1307 14.95970347616508
Delfi-N3xt
1 39428U 13066N   25104.20633477  .00010195  00000-0  10590-2 0  9999
2 39428  97.8367  22.5289 0085934 184.8236 175.2161 14.87376701610876
GOMX-1
1 39430U 13066Q   25104.71214452  .00004053  00000-0  63513-3 0  9996
2 39430  97.6905 326.7917 0133437  11.9176 348.5134 14.67365454607217
LO-74
1 39440U 13066AA  25104.32284530  .00010329  00000-0  10546-2 0  9998
2 39440  97.8463  49.3083 0063188   7.6706 352.5462 14.89309947614268
AO-73
1 39444U 13066AE  25104.18183779  .00012731  00000-0  97732-3 0  9991
2 39444  97.7700  65.9484 0040228 215.5093 144.3453 15.01262136615714
DTUSAT-2
1 40030U 14033W   25104.34811873  .00012310  00000-0  81992-3 0  9994
2 40030  98.0511  73.5035 0007301 245.0778 114.9690 15.07243200588432
EO-80
1 40032U 14033Y   25103.90648725  .00012547  00000-0  83406-3 0  9995
2 40032  98.0404  72.7750 0008431 176.2106 183.9186 15.07303656588354
LILACSAT-2
1 40908U 15049K   25104.72921978  .00019385  00000-0  53091-3 0  9994
2 40908  97.5106 123.7729 0009485  14.4690 345.6824 15.37321311529647
IO-86
1 40931U 15052B   25038.81889873  .00001817  00000-0  15548-3 0  9993
2 40931   6.0001 108.1159 0012838 187.7041 172.2889 14.78568669506492
Horyu-4
1 41340U 16012D   25104.18691726  .00033952  00000-0  99859-3 0  9999
2 41340  30.9950 150.4071 0008736 190.3952 169.6513 15.33842639504117
Lapan A3
1 41603U 16040E   25104.76509932  .00006793  00000-0  24062-3 0  9990
2 41603  97.1388 111.5767 0013158 106.3049 253.9640 15.29340520489259
CAS-2T
1 41847U 16066G   25104.18520128  .00001882  00000-0  27700-3 0  9990
2 41847  98.4219 179.1327 0346416 349.3130  10.0827 14.43323372442882
CAS-4B
1 42759U 17034B   25104.75629913  .00078281  00000-0  10911-2 0  9996
2 42759  43.0088 292.8233 0019826 262.6315  97.2294 15.55746651433886
CAS-4A
1 42761U 17034D   25104.76264789  .00079635  00000-0  10758-2 0  9999
2 42761  43.0124 290.4354 0021271 267.0726  92.7702 15.56544468433900
TechnoSat
1 42829U 17042E   25104.73251355  .00006749  00000-0  52811-3 0  9998
2 42829  97.3924 276.1136 0015284 106.8572 253.4331 15.01254410422345
AO-91
1 43017U 17073E   25104.38350712  .00016134  00000-0  84072-3 0  9993
2 43017  97.5335 336.5900 0175814 358.4681   1.5983 15.03597010400760
S-Net D
1 43186U 18014G   25103.63224380  .00009208  00000-0  55310-3 0  9991
2 43186  97.5673   7.1343 0011050  66.0862 294.1524 15.11068711393771
S-Net B
1 43187U 18014H   25104.69645600  .00009380  00000-0  56320-3 0  9994
2 43187  97.5674   8.1559 0011578  58.5494 301.6866 15.11071583393937
S-Net A
1 43188U 18014J   25104.16258260  .00009141  00000-0  54881-3 0  9994
2 43188  97.5683   7.7705 0011509  60.6851 299.5527 15.11084154393859
S-Net C
1 43189U 18014K   25104.69873911  .00008983  00000-0  53941-3 0  9998
2 43189  97.5700   8.3056 0012887  51.9883 308.2508 15.11068356392485
Ten-Koh
1 43677U 18084G   25103.91027947  .00004957  00000-0  40117-3 0  9999
2 43677  98.0936 273.9111 0009784 108.6527 251.5758 15.00209265351748
PO-101
1 43678U 18084H   25104.75363598  .00005125  00000-0  43914-3 0  9994
2 43678  98.0993 278.7671 0009861 112.7634 247.4630 14.97978365352021
QO-100
1 43700U 18090A   25104.75947439  .00000154  00000-0  00000+0 0  9991
2 43700   0.0166 255.9783 0001978 167.9627  78.4585  1.00274562 23628
MinXSS-2
1 43758U 18099A   25103.75974133  .00024501  00000-0  10247-2 0  9992
2 43758  97.5065 169.6823 0011286   2.5076 357.6215 15.23525441348314
AO-95
1 43770U 18099N   25104.10742710  .00016647  00000-0  86921-3 0  9995
2 43770  97.4971 162.8486 0011795  55.6550 304.5797 15.15929257347997
RANGE-A
1 43773U 18099R   25104.09614351  .00008791  00000-0  56784-3 0  9990
2 43773  97.4531 154.1401 0011983  33.6276 326.5710 15.08408537347706
MOVE-II
1 43780U 18099Y   25104.73319452  .00157258  00000-0  22116-2 0  9997
2 43780  97.4704 176.9801 0001948 265.3992  94.7039 15.56128585349065
SNUSat 2
1 43782U 18099AA  25104.10276061  .00013910  00000-0  77838-3 0  9996
2 43782  97.4654 160.0462 0011622 356.3980   3.7166 15.13507775347958
SnugLite
1 43784U 18099AC  25104.41344848  .00016170  00000-0  83829-3 0  9999
2 43784  97.4471 159.8064 0003141  20.6331 339.5028 15.16242870348121
ITASat 1
1 43786U 18099AE  25104.11472461  .00011419  00000-0  66622-3 0  9994
2 43786  97.4619 159.7272 0015367  47.1953 313.0567 15.12009316347928
EAGLET 1
1 43790U 18099AJ  25104.70891317  .00008438  00000-0  54467-3 0  9990
2 43790  97.4814 160.4372 0012494  28.3180 331.8726 15.08443896347645
ESEO
1 43792U 18099AL  25104.39297821  .00003529  00000-0  27082-3 0  9996
2 43792  97.4556 154.1323 0011733   9.2341 350.9097 15.02349061347385
CSIM
1 43793U 18099AM  25104.70550210  .00145188  00000-0  20238-2 0  9999
2 43793  97.4883 179.1139 0004826 285.6018  74.4704 15.56403720348901
JO-97
1 43803U 18099AX  25104.10545657  .00019761  00000-0  93971-3 0  9996
2 43803  97.4720 163.7304 0006651 353.3279   6.7865 15.19206919348193
Suomi 100
1 43804U 18099AY  25104.09926066  .00016885  00000-0  85394-3 0  9996
2 43804  97.4784 163.1709 0011790 351.2345   8.8681 15.17050056348138
ISAT
1 43879U 18111D   25104.20261109  .00031385  00000-0  11745-2 0  9996
2 43879  97.5997  17.4475 0011275  48.7623 311.4585 15.27191882343060
UWE-4
1 43880U 18111E   25103.71635009  .00027730  00000-0  11498-2 0  9991
2 43880  97.5938  15.8040 0014629  56.4136 303.8495 15.23749900342967
Sparrow
1 43881U 18111F   25104.55450923  .00034929  00000-0  12639-2 0  9991
2 43881  97.6129  20.4772 0010183  79.9900 280.2487 15.28288832343221
Prox-1
1 44339U 19036A   25103.61870603  .00019115  00000-0  25237-2 0  9992
2 44339  23.9967  75.5742 0007483 145.2755 214.8231 14.78454792309578
SONATE
1 44400U 19038Q   25103.84974267  .00147018  00000-0  10979-2 0  9990
2 44400  97.7001 124.0925 0009949 107.3021 252.9330 15.72214134320601
Taurus 1
1 44530U 19059C   25104.73744303  .00014425  00000-0  27044-2 0  9998
2 44530  98.5998 241.5377 0010571 202.8179 157.2554 14.64836279295766
